KB4NWJ Weather Reports


time (UTC)temp
C
wind
direction
speed
KPH
gust
KPH
rain 1hr
cm
rain 24hr
cm
rain mn
cm
humidity
%
barometer
mb
20260906131804 23 244 1.6 3.2 0.00 0.03 0.03 99 1015.1
20260906131259 23 236 0.0 1.6 0.00 0.03 0.03 99 1015.2
20260906130755 24 247 0.0 1.6 0.00 0.03 0.03 99 1015.2
20260906130250 23 245 0.0 1.6 0.00 0.03 0.03 99 1015.0
20260906125749 23 243 0.0 0.0 0.00 0.03 0.03 99 1014.9
20260906125246 23 246 0.0 0.0 0.00 0.03 0.03 99 1014.9
20260906124741 23 246 0.0 0.0 0.00 0.03 0.03 99 1014.9
20260906124238 23 250 0.0 0.0 0.00 0.03 0.03 99 1015.0
20260906123736 22 250 0.0 0.0 0.00 0.03 0.03 99 1014.9
20260906123231 22 249 0.0 0.0 0.00 0.03 0.03 99 1014.9
20260906122730 22 250 0.0 0.0 0.00 0.03 0.03 99 1014.9
20260906122226 22 246 0.0 0.0 0.00 0.03 0.03 99 1015.0
20260906121722 21 250 0.0 0.0 0.00 0.03 0.03 99 1014.7
20260906121218 21 252 0.0 0.0 0.00 0.03 0.03 99 1014.7
20260906120714 21 253 0.0 0.0 0.00 0.03 0.03 99 1014.6
20260906120210 21 249 0.0 0.0 0.00 0.03 0.03 99 1014.5
20260906115706 21 250 0.0 0.0 0.00 0.03 0.03 99 1014.6
20260906115201 21 251 0.0 0.0 0.00 0.03 0.03 99 1014.9
20260906114700 21 252 0.0 0.0 0.00 0.03 0.03 99 1014.4
20260906114155 21 246 0.0 0.0 0.00 0.03 0.03 99 1014.1
20260906113655 21 251 0.0 0.0 0.00 0.03 0.03 99 1014.4
20260906113155 21 250 0.0 0.0 0.00 0.03 0.03 99 1014.4
20260906112654 21 248 0.0 0.0 0.00 0.03 0.03 99 1014.3
20260906112152 21 249 0.0 0.0 0.18 0.03 0.03 99 1014.3
20260906111651 21 248 0.0 0.0 0.18 0.03 0.03 99 1014.3
20260906111145 21 245 0.0 0.0 0.00 0.00 0.00 99 1014.3
20260906110641 21 245 0.0 0.0 0.00 0.00 0.00 99 1014.2
20260906110136 21 249 0.0 0.0 0.00 0.00 0.00 99 1014.2
20260906105629 21 249 0.0 0.0 0.00 0.00 0.00 99 1014.3
20260906105126 21 249 0.0 0.0 0.00 0.00 0.00 99 1014.2
20260906104625 21 248 0.0 0.0 0.00 0.00 0.00 99 1014.1
20260906104120 21 248 0.0 0.0 0.00 0.00 0.00 99 1014.2
20260906103618 21 248 0.0 0.0 0.00 0.00 0.00 99 1014.0
20260906103113 21 248 0.0 0.0 0.00 0.00 0.00 99 1014.4
20260906102608 21 247 0.0 0.0 0.00 0.00 0.00 99 1014.4
20260906102102 21 243 0.0 0.0 0.00 0.00 0.00 99 1014.2
20260906101556 21 242 0.0 0.0 0.00 0.00 0.00 99 1014.2
20260906101051 21 245 0.0 0.0 0.00 0.00 0.00 99 1014.5
20260906100547 21 246 0.0 0.0 0.00 0.00 0.00 99 1014.3
20260906100047 21 245 0.0 0.0 0.00 0.00 0.00 99 1014.1
20260906095542 21 253 0.0 0.0 0.00 0.00 0.00 99 1013.9
20260906095037 21 253 0.0 0.0 0.00 0.00 0.00 99 1014.2
20260906094536 21 253 0.0 0.0 0.00 0.00 0.00 99 1013.9
20260906094032 21 253 0.0 0.0 0.00 0.00 0.00 99 1013.9
20260906093528 21 251 0.0 0.0 0.00 0.00 0.00 99 1013.8
20260906093023 21 252 0.0 0.0 0.00 0.00 0.00 99 1014.0
20260906092522 21 251 0.0 0.0 0.00 0.00 0.00 99 1013.8
20260906092018 21 251 0.0 0.0 0.00 0.00 0.00 99 1013.9
20260906091514 21 251 0.0 0.0 0.00 0.00 0.00 99 1013.6
20260906091010 21 251 0.0 0.0 0.00 0.00 0.00 99 1013.6
20260906090510 21 251 0.0 0.0 0.00 0.00 0.00 99 1013.5
20260906090005 21 249 0.0 0.0 0.00 0.00 0.00 99 1013.5
20260906085504 21 245 0.0 0.0 0.00 0.00 0.00 99 1013.5
20260906085003 21 249 0.0 0.0 0.00 0.00 0.00 99 1013.6
20260906084458 21 248 0.0 0.0 0.00 0.00 0.00 99 1013.7
20260906083957 21 248 0.0 0.0 0.00 0.00 0.00 99 1013.9
20260906083453 21 248 0.0 0.0 0.00 0.00 0.00 99 1013.7
20260906082952 21 248 0.0 0.0 0.00 0.00 0.00 99 1013.6
20260906082447 21 248 0.0 0.0 0.00 0.00 0.00 99 1013.5
20260906081943 21 249 0.0 0.0 0.00 0.00 0.00 99 1013.6
20260906081443 21 248 0.0 0.0 0.00 0.00 0.00 99 1013.7
20260906080940 21 249 0.0 0.0 0.00 0.00 0.00 99 1013.7
20260906080436 21 246 0.0 0.0 0.00 0.00 0.00 99 1013.8
20260906075931 21 250 0.0 0.0 0.00 0.00 0.00 99 1013.8
20260906075426 21 251 0.0 0.0 0.00 0.00 0.00 99 1013.8
20260906074921 21 251 0.0 0.0 0.00 0.00 0.00 99 1013.9
20260906074420 21 250 0.0 0.0 0.00 0.00 0.00 99 1013.8
20260906073920 21 249 0.0 0.0 0.00 0.00 0.00 99 1013.5
20260906073414 21 249 0.0 0.0 0.00 0.00 0.00 99 1013.5
20260906072911 21 249 0.0 0.0 0.00 0.00 0.00 99 1013.6
20260906072406 21 249 0.0 0.0 0.00 0.00 0.00 99 1013.9
20260906071902 21 248 0.0 0.0 0.00 0.00 0.00 99 1013.5
20260906071357 21 253 0.0 0.0 0.00 0.00 0.00 99 1013.8
20260906070853 21 249 0.0 0.0 0.00 0.00 0.00 99 1013.8
20260906070349 21 246 0.0 0.0 0.00 0.00 0.00 99 1013.7
20260906065844 21 246 0.0 0.0 0.00 0.00 0.00 99 1013.8
20260906065338 21 246 0.0 0.0 0.00 0.00 0.00 99 1013.6
20260906064834 21 247 0.0 0.0 0.00 0.00 0.00 99 1013.6
20260906064330 21 246 0.0 0.0 0.00 0.00 0.00 99 1013.8
20260906063824 21 247 0.0 0.0 0.00 0.00 0.00 99 1013.8
20260906063320 21 250 0.0 0.0 0.00 0.00 0.00 99 1013.8
20260906062816 21 250 0.0 0.0 0.00 0.00 0.00 99 1013.7
20260906062315 21 250 0.0 0.0 0.00 0.00 0.00 99 1013.8
20260906061810 21 250 0.0 0.0 0.00 0.00 0.00 99 1014.0
20260906061306 21 247 0.0 0.0 0.00 0.00 0.00 99 1014.0
20260906060801 21 247 0.0 0.0 0.00 0.00 0.00 99 1014.0
20260906060258 21 243 0.0 0.0 0.00 0.00 0.00 99 1013.8
20260906055754 21 249 0.0 0.0 0.00 0.00 0.00 99 1014.0
20260906055249 21 246 0.0 0.0 0.00 0.00 0.00 99 1014.1
20260906054744 21 246 0.0 0.0 0.00 0.00 0.00 99 1013.9
20260906054239 21 246 0.0 0.0 0.00 0.00 0.00 99 1014.3
20260906053736 21 249 0.0 0.0 0.00 0.00 0.00 99 1014.4
20260906053232 21 247 0.0 0.0 0.00 0.00 0.00 99 1014.1
20260906052726 21 247 0.0 0.0 0.00 0.00 0.00 99 1014.5
20260906052223 21 246 0.0 0.0 0.00 0.00 0.00 99 1014.3
20260906051720 21 243 0.0 0.0 0.00 0.00 0.00 99 1014.3
20260906051219 21 247 0.0 0.0 0.00 0.00 0.00 99 1014.5
20260906050714 21 249 0.0 0.0 0.00 0.00 0.00 99 1014.4
20260906050209 21 253 0.0 0.0 0.00 0.00 0.00 99 1014.6
20260906045708 22 246 0.0 0.0 0.00 0.00 0.00 99 1014.9
20260906045202 21 246 0.0 0.0 0.00 0.00 0.00 99 1014.7
20260906044659 21 253 0.0 0.0 0.00 0.00 0.00 99 1014.9
20260906044154 22 256 0.0 1.6 0.00 0.00 0.00 99 1014.6
20260906043650 22 253 0.0 0.0 0.00 0.00 0.00 99 1014.3
20260906043145 22 253 0.0 0.0 0.00 0.00 0.00 99 1014.4
20260906042640 22 250 0.0 0.0 0.00 0.00 0.00 99 1014.5
20260906042133 22 248 0.0 0.0 0.00 0.00 0.00 99 1014.6
20260906041629 22 250 0.0 0.0 0.00 0.00 0.00 99 1014.5
20260906041124 22 247 0.0 0.0 0.00 0.00 0.00 99 1014.6
20260906040619 22 244 0.0 0.0 0.00 0.00 0.00 99 1014.7
20260906040114 22 244 0.0 0.0 0.00 0.00 0.00 99 1014.5
20260906035609 22 250 0.0 0.0 0.00 2.51 2.51 99 1014.4
20260906035105 22 250 0.0 0.0 0.00 2.51 2.51 99 1014.6
20260906034600 22 249 0.0 0.0 0.00 2.51 2.51 99 1014.5
20260906034055 22 249 0.0 0.0 0.00 2.51 2.51 99 1014.6
20260906033550 22 255 0.0 1.6 0.00 2.51 2.51 99 1014.6
20260906033045 22 252 0.0 0.0 0.00 2.51 2.51 99 1014.7
20260906032542 22 252 0.0 0.0 0.00 2.51 2.51 99 1014.7
20260906032042 22 253 0.0 0.0 0.00 2.51 2.51 99 1015.0
20260906031538 22 253 0.0 0.0 0.00 2.51 2.51 99 1015.3
20260906031033 22 252 0.0 0.0 0.00 2.51 2.51 99 1015.0
20260906030532 22 252 0.0 0.0 0.00 2.51 2.51 99 1015.2
20260906030032 22 252 0.0 0.0 0.00 2.51 2.51 99 1015.2
20260906025532 22 246 0.0 0.0 0.00 2.51 2.51 99 1015.5
20260906025030 22 250 0.0 0.0 0.00 2.51 2.51 99 1015.4
20260906024526 22 253 0.0 0.0 0.00 2.51 2.51 99 1015.2
20260906024025 21 250 0.0 0.0 0.00 2.51 2.51 99 1015.2
20260906023522 21 241 1.6 1.6 0.00 2.51 2.51 99 1015.2
20260906023016 21 249 0.0 0.0 0.00 2.51 2.51 99 1015.4
20260906022511 21 242 1.6 1.6 0.00 2.51 2.51 99 1015.3
20260906022007 21 250 0.0 0.0 0.00 2.51 2.51 99 1015.3
20260906021502 21 251 0.0 0.0 0.00 2.51 2.51 99 1015.3
20260906020956 21 250 0.0 0.0 0.00 2.51 2.51 99 1015.3
20260906020450 21 251 0.0 0.0 0.00 2.51 2.51 99 1015.1
20260906015950 21 248 0.0 0.0 0.00 2.51 2.51 99 1015.1
20260906015449 21 253 0.0 0.0 0.00 2.51 2.51 99 1015.1
20260906014949 21 249 0.0 0.0 0.00 2.51 2.51 99 1015.1
20260906014449 21 227 1.6 1.6 0.00 2.51 2.51 99 1014.9
20260906013945 21 239 1.6 1.6 0.00 2.51 2.51 99 1014.4
20260906013440 21 246 0.0 0.0 0.00 2.51 2.51 99 1014.2
20260906012936 21 245 0.0 0.0 0.00 2.51 2.51 99 1014.3
20260906012431 21 242 0.0 0.0 0.00 2.51 2.51 99 1014.4
20260906011930 21 248 0.0 0.0 0.00 2.51 2.51 99 1014.4
20260906011426 21 245 0.0 0.0 0.00 2.51 2.51 99 1014.2
20260906010921 21 262 0.0 0.0 0.00 2.51 2.51 99 1014.3
20260906010416 21 250 0.0 0.0 0.13 2.51 2.51 99 1014.0
20260906005912 20 232 1.6 1.6 1.98 2.51 2.51 99 1014.0
20260906005412 21 247 1.6 3.2 6.12 2.49 2.49 99 1014.3
20260906004910 22 245 1.6 1.6 7.80 2.26 2.26 99 1014.7
20260906004405 23 276 4.8 4.8 8.59 1.45 1.45 99 1015.4
20260906003900 25 341 4.8 8.0 5.33 0.89 0.89 98 1014.9
20260906003355 27 252 4.8 8.0 0.13 0.03 0.03 88 1014.0
20260906002851 30 8 8.0 9.7 0.00 0.00 0.00 76 1013.7
20260906002350 30 245 0.0 0.0 0.00 0.00 0.00 78 1013.2
20260906001846 30 194 3.2 4.8 0.00 0.00 0.00 77 1012.8
20260906001341 30 235 1.6 1.6 0.00 0.00 0.00 77 1012.9
20260906000837 31 250 0.0 1.6 0.00 0.00 0.00 76 1012.3
20260906000337 31 254 0.0 0.0 0.00 0.00 0.00 76 1012.5
20260905235836 31 252 0.0 1.6 0.00 0.00 0.00 76 1012.7
20260905235331 31 238 0.0 0.0 0.00 0.00 0.00 75 1012.6
20260905234826 31 254 0.0 0.0 0.00 0.00 0.00 74 1012.8
20260905234321 31 252 1.6 1.6 0.00 0.00 0.00 74 1012.7
20260905233816 31 255 1.6 1.6 0.00 0.00 0.00 73 1012.5
20260905233311 32 237 1.6 1.6 0.00 0.00 0.00 73 1012.5
20260905232810 32 255 0.0 0.0 0.00 0.00 0.00 72 1012.7
20260905232307 32 245 0.0 0.0 0.00 0.00 0.00 72 1012.7
20260905231802 32 253 0.0 0.0 0.00 0.00 0.00 72 1012.6
20260905231257 32 256 0.0 1.6 0.00 0.00 0.00 70 1012.9
20260905230754 32 215 4.8 4.8 0.00 0.00 0.00 69 1012.7
20260905230251 32 238 1.6 1.6 0.00 0.00 0.00 68 1012.7
20260905225751 32 208 1.6 3.2 0.00 0.00 0.00 68 1012.6
20260905225246 33 249 0.0 0.0 0.00 0.00 0.00 66 1012.6
20260905224745 33 240 0.0 1.6 0.00 0.00 0.00 62 1012.4
20260905224241 34 218 3.2 3.2 0.00 0.00 0.00 53 1012.8
20260905223737 35 242 3.2 3.2 0.00 0.00 0.00 50 1012.6
20260905223234 35 246 1.6 1.6 0.00 0.00 0.00 48 1012.6
20260905222729 35 234 1.6 3.2 0.00 0.00 0.00 47 1012.6
20260905222228 35 259 0.0 0.0 0.00 0.00 0.00 49 1012.2
20260905221724 35 251 0.0 0.0 0.00 0.00 0.00 47 1012.5
20260905221221 35 264 0.0 0.0 0.00 0.00 0.00 47 1012.3
20260905220717 36 238 4.8 4.8 0.00 0.00 0.00 45 1012.6
20260905220212 36 251 0.0 0.0 0.00 0.00 0.00 45 1012.3
20260905215712 36 244 0.0 0.0 0.00 0.00 0.00 44 1012.4
20260905215208 35 258 0.0 1.6 0.00 0.00 0.00 44 1012.3
20260905214703 35 261 1.6 1.6 0.00 0.00 0.00 45 1012.4
20260905214158 35 243 0.0 0.0 0.00 0.00 0.00 46 1012.2
20260905213654 35 224 1.6 1.6 0.00 0.00 0.00 45 1012.3
20260905213149 35 255 1.6 1.6 0.00 0.00 0.00 46 1012.3
20260905212644 35 255 1.6 1.6 0.00 0.00 0.00 46 1012.3
20260905212144 36 270 3.2 3.2 0.00 0.00 0.00 44 1012.6
20260905211638 36 258 0.0 0.0 0.00 0.00 0.00 45 1012.5
20260905211134 35 250 1.6 4.8 0.00 0.00 0.00 43 1012.5
20260905210631 35 273 1.6 1.6 0.00 0.00 0.00 45 1012.6
20260905210125 36 249 0.0 0.0 0.00 0.00 0.00 44 1012.6
20260905205624 36 246 1.6 1.6 0.00 0.00 0.00 44 1012.8
20260905205124 36 258 3.2 3.2 0.00 0.00 0.00 44 1012.8
20260905204623 35 254 0.0 0.0 0.00 0.00 0.00 49 1012.8
20260905204119 36 221 4.8 4.8 0.00 0.00 0.00 48 1012.7
20260905203619 36 270 1.6 3.2 0.00 0.00 0.00 46 1012.8
20260905203114 35 252 1.6 1.6 0.00 0.00 0.00 49 1012.6
20260905202610 35 248 1.6 1.6 0.00 0.00 0.00 48 1013.1
20260905202105 35 228 4.8 4.8 0.00 0.00 0.00 46 1013.3
20260905201601 35 234 4.8 4.8 0.00 0.00 0.00 48 1013.2
20260905201101 36 222 4.8 4.8 0.00 0.00 0.00 48 1013.3
20260905200556 36 248 0.0 0.0 0.00 0.00 0.00 48 1013.4
20260905200056 35 240 0.0 0.0 0.00 0.00 0.00 50 1013.4
20260905195549 36 288 0.0 0.0 0.00 0.00 0.00 50 1013.8
20260905195045 35 255 1.6 3.2 0.00 0.00 0.00 49 1013.7
20260905194545 36 241 0.0 1.6 0.00 0.00 0.00 50 1013.9
20260905194044 35 198 4.8 8.0 0.00 0.00 0.00 51 1013.7
20260905193539 35 162 4.8 4.8 0.00 0.00 0.00 50 1013.7
20260905193035 35 249 4.8 8.0 0.00 0.00 0.00 50 1013.5
20260905192529 35 204 9.7 11.3 0.00 0.00 0.00 51 1013.8
20260905192026 35 181 3.2 3.2 0.00 0.00 0.00 51 1013.7
20260905191524 35 267 0.0 1.6 0.00 0.00 0.00 55 1014.1
20260905191024 35 353 3.2 4.8 0.00 0.00 0.00 53 1013.8
20260905190521 34 257 4.8 4.8 0.00 0.00 0.00 57 1014.0
20260905190016 35 242 1.6 1.6 0.00 0.00 0.00 54 1014.2
20260905185510 36 234 3.2 4.8 0.00 0.00 0.00 51 1014.3
20260905185009 35 253 0.0 0.0 0.00 0.00 0.00 52 1014.4
20260905184504 35 49 3.2 3.2 0.00 0.00 0.00 51 1014.4
20260905184003 35 318 1.6 1.6 0.00 0.00 0.00 52 1014.3
20260905183457 35 175 4.8 8.0 0.00 0.00 0.00 50 1014.6
20260905182952 35 313 1.6 3.2 0.00 0.00 0.00 53 1014.6
20260905182451 35 250 0.0 0.0 0.00 0.00 0.00 58 1014.5
20260905181947 35 251 0.0 0.0 0.00 0.00 0.00 58 1014.6
20260905181446 34 250 3.2 3.2 0.00 0.00 0.00 55 1014.6
20260905180946 33 184 6.4 8.0 0.00 0.00 0.00 57 1014.7
20260905180440 34 238 3.2 4.8 0.00 0.00 0.00 60 1014.9
20260905175936 35 234 3.2 3.2 0.00 0.00 0.00 58 1014.9
20260905175430 35 307 0.0 1.6 0.00 0.00 0.00 58 1014.7
20260905174926 34 276 0.0 1.6 0.00 0.00 0.00 59 1015.1
20260905174421 35 68 3.2 4.8 0.00 0.00 0.00 58 1015.3
20260905173916 35 248 1.6 3.2 0.00 0.00 0.00 59 1015.3
20260905173413 34 222 0.0 0.0 0.00 0.00 0.00 59 1015.2
20260905172912 34 248 0.0 0.0 0.00 0.00 0.00 56 1015.4
20260905172410 34 248 0.0 0.0 0.00 0.00 0.00 58 1015.6
20260905171906 34 212 4.8 11.3 0.00 0.00 0.00 57 1015.8
20260905171403 33 198 4.8 4.8 0.00 0.00 0.00 61 1015.6
20260905170859 33 211 4.8 4.8 0.00 0.00 0.00 60 1015.5
20260905170355 34 166 6.4 9.7 0.00 0.00 0.00 58 1015.7
20260905165854 34 245 1.6 3.2 0.00 0.00 0.00 58 1015.7
20260905165349 33 252 1.6 1.6 0.00 0.00 0.00 59 1016.0
20260905164844 33 210 4.8 4.8 0.00 0.00 0.00 60 1015.7
20260905164339 33 182 3.2 4.8 0.00 0.00 0.00 61 1015.9
20260905163834 35 304 1.6 3.2 0.00 0.00 0.00 58 1015.7
20260905163330 34 227 1.6 1.6 0.00 0.00 0.00 61 1015.8
20260905162827 33 249 3.2 4.8 0.00 0.00 0.00 61 1016.0
20260905162321 33 236 3.2 3.2 0.00 0.00 0.00 61 1016.1
20260905161821 34 249 1.6 3.2 0.00 0.00 0.00 61 1016.1
20260905161321 33 229 1.6 1.6 0.00 0.00 0.00 61 1016.1
20260905160819 33 249 0.0 1.6 0.00 0.00 0.00 61 1016.0
20260905160319 33 272 1.6 1.6 0.00 0.00 0.00 66 1016.2
20260905155813 32 246 1.6 1.6 0.00 0.00 0.00 66 1016.1
20260905155313 32 244 0.0 0.0 0.00 0.00 0.00 65 1016.3
20260905154808 33 255 1.6 3.2 0.00 0.00 0.00 61 1016.3
20260905154303 35 282 3.2 3.2 0.00 0.00 0.00 61 1016.4
20260905153758 33 256 1.6 1.6 0.00 0.00 0.00 63 1016.1
20260905153255 34 240 1.6 1.6 0.00 0.00 0.00 60 1016.1
20260905152749 33 263 0.0 0.0 0.00 0.00 0.00 65 1016.4
20260905152243 33 201 3.2 3.2 0.00 0.00 0.00 63 1016.3
20260905151742 33 267 1.6 3.2 0.00 0.00 0.00 66 1016.2
20260905151239 32 203 1.6 1.6 0.00 0.00 0.00 67 1016.4
20260905150738 33 327 3.2 3.2 0.00 0.00 0.00 66 1016.4
20260905150237 33 254 1.6 1.6 0.00 0.00 0.00 65 1016.3
20260905145735 32 240 0.0 0.0 0.00 0.00 0.00 67 1016.3
20260905145230 32 268 0.0 0.0 0.00 0.00 0.00 69 1016.3
20260905144728 31 241 0.0 0.0 0.00 0.00 0.00 70 1016.1
20260905144224 32 240 0.0 0.0 0.00 0.00 0.00 72 1016.3
20260905143718 31 245 0.0 1.6 0.00 0.00 0.00 73 1016.4
20260905143218 31 329 0.0 0.0 0.00 0.00 0.00 73 1016.6
20260905142716 30 252 1.6 1.6 0.00 0.00 0.00 74 1016.4
20260905142211 31 233 0.0 1.6 0.00 0.00 0.00 72 1016.6
20260905141706 31 244 0.0 1.6 0.00 0.00 0.00 74 1016.4
20260905141202 31 274 0.0 0.0 0.00 0.00 0.00 76 1016.6
20260905140657 31 222 1.6 1.6 0.00 0.00 0.00 75 1016.6
20260905140151 31 248 0.0 0.0 0.00 0.00 0.00 75 1016.5
20260905135646 30 244 0.0 0.0 0.00 0.00 0.00 77 1016.7
20260905135142 30 214 1.6 1.6 0.00 0.00 0.00 79 1016.5
20260905134636 29 241 0.0 0.0 0.00 0.00 0.00 81 1016.5
20260905134135 29 281 1.6 1.6 0.00 0.00 0.00 81 1016.5
20260905133631 28 248 1.6 1.6 0.00 0.00 0.00 83 1016.7
20260905133130 28 250 1.6 1.6 0.00 0.00 0.00 83 1016.7
20260905132630 27 257 1.6 1.6 0.00 0.00 0.00 85 1016.9